Year,Month,Day,Hour,Minute,Value (Times are PST for temperature in C)
2011,05,04,00,00,7.00
2011,05,04,00,01,7.00
2011,05,04,00,02,7.00
2011,05,04,00,03,7.00
2011,05,04,00,04,7.00
2011,05,04,00,05,7.00
2011,05,04,00,06,7.00
2011,05,04,00,07,7.00
2011,05,04,00,08,7.00
2011,05,04,00,09,7.00
2011,05,04,00,10,7.00
2011,05,04,00,11,7.00
2011,05,04,00,12,7.00
2011,05,04,00,13,7.00
2011,05,04,00,14,7.00
2011,05,04,00,15,7.00
2011,05,04,00,16,7.00
2011,05,04,00,17,7.00
2011,05,04,00,18,7.00
2011,05,04,00,19,6.90
2011,05,04,00,20,6.90
2011,05,04,00,21,6.90
2011,05,04,00,22,6.90
2011,05,04,00,23,6.90
2011,05,04,00,24,6.90
2011,05,04,00,25,6.90
2011,05,04,00,26,6.90
2011,05,04,00,27,6.90
2011,05,04,00,28,6.90
2011,05,04,00,29,6.90
2011,05,04,00,30,6.90
2011,05,04,00,31,6.90
2011,05,04,00,32,6.90
2011,05,04,00,33,6.90
2011,05,04,00,34,7.00
2011,05,04,00,35,7.00
2011,05,04,00,36,7.00
2011,05,04,00,37,7.00
2011,05,04,00,38,7.00
2011,05,04,00,39,7.00
2011,05,04,00,40,7.00
2011,05,04,00,41,7.00
2011,05,04,00,42,7.00
2011,05,04,00,43,7.00
2011,05,04,00,44,7.00
2011,05,04,00,45,7.00
2011,05,04,00,46,7.00
2011,05,04,00,47,7.00
2011,05,04,00,48,7.00
2011,05,04,00,49,6.90
2011,05,04,00,50,6.90
2011,05,04,00,51,6.90
2011,05,04,00,52,6.90
2011,05,04,00,53,6.90
2011,05,04,00,54,6.90
2011,05,04,00,55,6.90
2011,05,04,00,56,6.90
2011,05,04,00,57,6.90
2011,05,04,00,58,6.90
2011,05,04,00,59,6.90
2011,05,04,01,00,6.80
2011,05,04,01,01,6.80
2011,05,04,01,02,6.80
2011,05,04,01,03,6.80
2011,05,04,01,04,6.80
2011,05,04,01,05,6.80
2011,05,04,01,06,6.80
2011,05,04,01,07,6.80
2011,05,04,01,08,6.80
2011,05,04,01,09,6.80
2011,05,04,01,10,6.80
2011,05,04,01,11,6.80
2011,05,04,01,12,6.80
2011,05,04,01,13,6.80
2011,05,04,01,14,6.80
2011,05,04,01,15,6.70
2011,05,04,01,16,6.70
2011,05,04,01,17,6.70
2011,05,04,01,18,6.70
2011,05,04,01,19,6.70
2011,05,04,01,20,6.70
2011,05,04,01,21,6.70
2011,05,04,01,22,6.70
2011,05,04,01,23,6.70
2011,05,04,01,24,6.70
2011,05,04,01,25,6.70
2011,05,04,01,26,6.70
2011,05,04,01,27,6.70
2011,05,04,01,28,6.70
2011,05,04,01,29,6.70
2011,05,04,01,30,6.60
2011,05,04,01,31,6.60
2011,05,04,01,32,6.60
2011,05,04,01,33,6.60
2011,05,04,01,34,6.60
2011,05,04,01,35,6.60
2011,05,04,01,36,6.60
2011,05,04,01,37,6.60
2011,05,04,01,38,6.60
2011,05,04,01,39,6.60
2011,05,04,01,40,6.60
2011,05,04,01,41,6.60
2011,05,04,01,42,6.60
2011,05,04,01,43,6.60
2011,05,04,01,44,6.60
2011,05,04,01,45,6.60
2011,05,04,01,46,6.50
2011,05,04,01,47,6.40
2011,05,04,01,48,6.40
2011,05,04,01,49,6.40
2011,05,04,01,50,6.40
2011,05,04,01,51,6.40
2011,05,04,01,52,6.40
2011,05,04,01,53,6.40
2011,05,04,01,54,6.40
2011,05,04,01,55,6.40
2011,05,04,01,56,6.40
2011,05,04,01,57,6.40
2011,05,04,01,58,6.40
2011,05,04,01,59,6.40
2011,05,04,02,00,6.40
2011,05,04,02,01,6.40
2011,05,04,02,02,6.40
2011,05,04,02,03,6.40
2011,05,04,02,04,6.40
2011,05,04,02,05,6.40
2011,05,04,02,06,6.40
2011,05,04,02,07,6.40
2011,05,04,02,08,6.40
2011,05,04,02,09,6.40
2011,05,04,02,10,6.40
2011,05,04,02,11,6.40
2011,05,04,02,12,6.40
2011,05,04,02,13,6.40
2011,05,04,02,14,6.30
2011,05,04,02,15,6.30
2011,05,04,02,16,6.30
2011,05,04,02,17,6.30
2011,05,04,02,18,6.30
2011,05,04,02,19,6.20
2011,05,04,02,20,6.20
2011,05,04,02,21,6.20
2011,05,04,02,22,6.20
2011,05,04,02,23,6.20
2011,05,04,02,24,6.20
2011,05,04,02,25,6.20
2011,05,04,02,26,6.20
2011,05,04,02,27,6.10
2011,05,04,02,28,6.10
2011,05,04,02,29,6.10
2011,05,04,02,30,6.10
2011,05,04,02,31,6.00
2011,05,04,02,32,6.00
2011,05,04,02,33,6.00
2011,05,04,02,34,6.00
2011,05,04,02,35,5.90
2011,05,04,02,36,5.90
2011,05,04,02,37,5.90
2011,05,04,02,38,5.90
2011,05,04,02,39,5.90
2011,05,04,02,40,5.90
2011,05,04,02,41,5.90
2011,05,04,02,42,5.90
2011,05,04,02,43,5.80
2011,05,04,02,44,5.80
2011,05,04,02,45,5.80
2011,05,04,02,46,5.80
2011,05,04,02,47,5.70
2011,05,04,02,48,5.70
2011,05,04,02,49,5.70
2011,05,04,02,50,5.70
2011,05,04,02,51,5.70
2011,05,04,02,52,5.70
2011,05,04,02,53,5.70
2011,05,04,02,54,5.70
2011,05,04,02,55,5.70
2011,05,04,02,56,5.70
2011,05,04,02,57,5.70
2011,05,04,02,58,5.60
2011,05,04,02,59,5.70
2011,05,04,03,00,5.70
2011,05,04,03,01,5.60
2011,05,04,03,02,5.60
2011,05,04,03,03,5.60
2011,05,04,03,04,5.60
2011,05,04,03,05,5.60
2011,05,04,03,06,5.60
2011,05,04,03,07,5.60
2011,05,04,03,08,5.60
2011,05,04,03,09,5.50
2011,05,04,03,10,5.50
2011,05,04,03,11,5.40
2011,05,04,03,12,5.40
2011,05,04,03,13,5.40
2011,05,04,03,14,5.30
2011,05,04,03,15,5.30
2011,05,04,03,16,5.30
2011,05,04,03,17,5.30
2011,05,04,03,18,5.30
2011,05,04,03,19,5.30
2011,05,04,03,20,5.20
2011,05,04,03,21,5.20
2011,05,04,03,22,5.20
2011,05,04,03,23,5.20
2011,05,04,03,24,5.20
2011,05,04,03,25,5.20
2011,05,04,03,26,5.20
2011,05,04,03,27,5.10
2011,05,04,03,28,5.10
2011,05,04,03,29,5.10
2011,05,04,03,30,5.10
2011,05,04,03,31,5.10
2011,05,04,03,32,5.00
2011,05,04,03,33,4.90
2011,05,04,03,34,4.90
2011,05,04,03,35,4.90
2011,05,04,03,36,4.90
2011,05,04,03,37,4.90
2011,05,04,03,38,4.80
2011,05,04,03,39,4.80
2011,05,04,03,40,4.70
2011,05,04,03,41,4.70
2011,05,04,03,42,4.70
2011,05,04,03,43,4.60
2011,05,04,03,44,4.70
2011,05,04,03,45,4.70
2011,05,04,03,46,4.70
2011,05,04,03,47,4.70
2011,05,04,03,48,4.70
2011,05,04,03,49,4.70
2011,05,04,03,50,4.80
2011,05,04,03,51,4.80
2011,05,04,03,52,4.80
2011,05,04,03,53,4.80
2011,05,04,03,54,4.80
2011,05,04,03,55,4.80
2011,05,04,03,56,4.90
2011,05,04,03,57,4.90
2011,05,04,03,58,4.90
2011,05,04,03,59,4.90
2011,05,04,04,00,4.90
2011,05,04,04,01,4.90
2011,05,04,04,02,4.90
2011,05,04,04,03,4.90
2011,05,04,04,04,4.80
2011,05,04,04,05,4.80
2011,05,04,04,06,4.80
2011,05,04,04,07,4.90
2011,05,04,04,08,4.90
2011,05,04,04,09,4.90
2011,05,04,04,10,4.90
2011,05,04,04,11,4.90
2011,05,04,04,12,4.90
2011,05,04,04,13,4.90
2011,05,04,04,14,4.90
2011,05,04,04,15,4.90
2011,05,04,04,16,4.90
2011,05,04,04,17,4.90
2011,05,04,04,18,4.90
2011,05,04,04,19,4.90
2011,05,04,04,20,4.90
2011,05,04,04,21,4.90
2011,05,04,04,22,4.90
2011,05,04,04,23,4.90
2011,05,04,04,24,4.90
2011,05,04,04,25,4.90
2011,05,04,04,26,4.90
2011,05,04,04,27,4.90
2011,05,04,04,28,4.90
2011,05,04,04,29,4.90
2011,05,04,04,30,4.90
2011,05,04,04,31,4.90
2011,05,04,04,32,4.90
2011,05,04,04,33,4.90
2011,05,04,04,34,4.90
2011,05,04,04,35,4.90
2011,05,04,04,36,4.80
2011,05,04,04,37,4.80
2011,05,04,04,38,4.80
2011,05,04,04,39,4.80
2011,05,04,04,40,4.80
2011,05,04,04,41,4.80
2011,05,04,04,42,4.80
2011,05,04,04,43,4.80
2011,05,04,04,44,4.70
2011,05,04,04,45,4.70
2011,05,04,04,46,4.70
2011,05,04,04,47,4.70
2011,05,04,04,48,4.70
2011,05,04,04,49,4.60
2011,05,04,04,50,4.60
2011,05,04,04,51,4.60
2011,05,04,04,52,4.60
2011,05,04,04,53,4.50
2011,05,04,04,54,4.50
2011,05,04,04,55,4.50
2011,05,04,04,56,4.40
2011,05,04,04,57,4.40
2011,05,04,04,58,4.40
2011,05,04,04,59,4.40
2011,05,04,05,00,4.30
2011,05,04,05,01,4.30
2011,05,04,05,02,4.20
2011,05,04,05,03,4.20
2011,05,04,05,04,4.20
2011,05,04,05,05,4.10
2011,05,04,05,06,4.10
2011,05,04,05,07,4.00
2011,05,04,05,08,4.00
2011,05,04,05,09,4.00
2011,05,04,05,10,3.90
2011,05,04,05,11,3.90
2011,05,04,05,12,3.80
2011,05,04,05,13,3.80
2011,05,04,05,14,3.80
2011,05,04,05,15,3.80
2011,05,04,05,16,3.80
2011,05,04,05,17,3.80
2011,05,04,05,18,3.80
2011,05,04,05,19,3.70
2011,05,04,05,20,3.70
2011,05,04,05,21,3.70
2011,05,04,05,22,3.60
2011,05,04,05,23,3.60
2011,05,04,05,24,3.60
2011,05,04,05,25,3.60
2011,05,04,05,26,3.60
2011,05,04,05,27,3.70
2011,05,04,05,28,3.70
2011,05,04,05,29,3.70
2011,05,04,05,30,3.70
2011,05,04,05,31,3.70
2011,05,04,05,32,3.70
2011,05,04,05,33,3.70
2011,05,04,05,34,3.70
2011,05,04,05,35,3.70
2011,05,04,05,36,3.70
2011,05,04,05,37,3.70
2011,05,04,05,38,3.70
2011,05,04,05,39,3.70
2011,05,04,05,40,3.70
2011,05,04,05,41,3.70
2011,05,04,05,42,3.70
2011,05,04,05,43,3.60
2011,05,04,05,44,3.60
2011,05,04,05,45,3.50
2011,05,04,05,46,3.50
2011,05,04,05,47,3.40
2011,05,04,05,48,3.40
2011,05,04,05,49,3.30
2011,05,04,05,50,3.30
2011,05,04,05,51,3.30
2011,05,04,05,52,3.30
2011,05,04,05,53,3.30
2011,05,04,05,54,3.20
2011,05,04,05,55,3.20
2011,05,04,05,56,3.20
2011,05,04,05,57,3.20
2011,05,04,05,58,3.10
2011,05,04,05,59,3.10
2011,05,04,06,00,3.10
2011,05,04,06,01,3.10
2011,05,04,06,02,3.10
2011,05,04,06,03,3.10
2011,05,04,06,04,3.10
2011,05,04,06,05,3.10
2011,05,04,06,06,3.10
2011,05,04,06,07,3.10
2011,05,04,06,08,3.20
2011,05,04,06,09,3.20
2011,05,04,06,10,3.30
2011,05,04,06,11,3.30
2011,05,04,06,12,3.30
2011,05,04,06,13,3.40
2011,05,04,06,14,3.40
2011,05,04,06,15,3.50
2011,05,04,06,16,3.50
2011,05,04,06,17,3.50
2011,05,04,06,18,3.50
2011,05,04,06,19,3.60
2011,05,04,06,20,3.60
2011,05,04,06,21,3.60
2011,05,04,06,22,3.70
2011,05,04,06,23,3.70
2011,05,04,06,24,3.70
2011,05,04,06,25,3.70
2011,05,04,06,26,3.70
2011,05,04,06,27,3.70
2011,05,04,06,28,3.80
2011,05,04,06,29,3.80
2011,05,04,06,30,3.80
2011,05,04,06,31,3.80
2011,05,04,06,32,3.80
2011,05,04,06,33,3.80
2011,05,04,06,34,3.80
2011,05,04,06,35,3.80
2011,05,04,06,36,3.80
2011,05,04,06,37,3.80
2011,05,04,06,38,3.80
2011,05,04,06,39,3.80
2011,05,04,06,40,3.80
2011,05,04,06,41,3.70
2011,05,04,06,42,3.70
2011,05,04,06,43,3.70
2011,05,04,06,44,3.70
2011,05,04,06,45,3.70
2011,05,04,06,46,3.70
2011,05,04,06,47,3.70
2011,05,04,06,48,3.80
2011,05,04,06,49,3.80
2011,05,04,06,50,3.80
2011,05,04,06,51,3.80
2011,05,04,06,52,3.80
2011,05,04,06,53,3.90
2011,05,04,06,54,4.00
2011,05,04,06,55,4.00
2011,05,04,06,56,4.10
2011,05,04,06,57,4.20
2011,05,04,06,58,4.30
2011,05,04,06,59,4.40
2011,05,04,07,00,4.40
2011,05,04,07,01,4.50
2011,05,04,07,02,4.60
2011,05,04,07,03,4.60
2011,05,04,07,04,4.70
2011,05,04,07,05,4.70
2011,05,04,07,06,4.80
2011,05,04,07,07,4.80
2011,05,04,07,08,4.90
2011,05,04,07,09,4.90
2011,05,04,07,10,5.00
2011,05,04,07,11,5.10
2011,05,04,07,12,5.10
2011,05,04,07,13,5.10
2011,05,04,07,14,5.10
2011,05,04,07,15,5.10
2011,05,04,07,16,5.20
2011,05,04,07,17,5.20
2011,05,04,07,18,5.30
2011,05,04,07,19,5.40
2011,05,04,07,20,5.50
2011,05,04,07,21,5.60
2011,05,04,07,22,5.70
2011,05,04,07,23,5.80
2011,05,04,07,24,5.90
2011,05,04,07,25,6.10
2011,05,04,07,26,6.20
2011,05,04,07,27,6.30
2011,05,04,07,28,6.40
2011,05,04,07,29,6.50
2011,05,04,07,30,6.60
2011,05,04,07,31,6.70
2011,05,04,07,32,6.70
2011,05,04,07,33,6.70
2011,05,04,07,34,6.80
2011,05,04,07,35,6.90
2011,05,04,07,36,6.90
2011,05,04,07,37,7.00
2011,05,04,07,38,7.00
2011,05,04,07,39,7.00
2011,05,04,07,40,7.10
2011,05,04,07,41,7.10
2011,05,04,07,42,7.10
2011,05,04,07,43,7.20
2011,05,04,07,44,7.20
2011,05,04,07,45,7.30
2011,05,04,07,46,7.30
2011,05,04,07,47,7.30
2011,05,04,07,48,7.30
2011,05,04,07,49,7.30
2011,05,04,07,50,7.30
2011,05,04,07,51,7.40
2011,05,04,07,52,7.50
2011,05,04,07,53,7.50
2011,05,04,07,54,7.50
2011,05,04,07,55,7.50
2011,05,04,07,56,7.60
2011,05,04,07,57,7.60
2011,05,04,07,58,7.70
2011,05,04,07,59,7.70
2011,05,04,08,00,7.80
2011,05,04,08,01,7.80
2011,05,04,08,02,7.80
2011,05,04,08,03,7.80
2011,05,04,08,04,7.90
2011,05,04,08,05,8.00
2011,05,04,08,06,8.00
2011,05,04,08,07,8.10
2011,05,04,08,08,8.20
2011,05,04,08,09,8.20
2011,05,04,08,10,8.20
2011,05,04,08,11,8.30
2011,05,04,08,12,8.30
2011,05,04,08,13,8.30
2011,05,04,08,14,8.40
2011,05,04,08,15,8.40
2011,05,04,08,16,8.40
2011,05,04,08,17,8.40
2011,05,04,08,18,8.40
2011,05,04,08,19,8.40
2011,05,04,08,20,8.40
2011,05,04,08,21,8.40
2011,05,04,08,22,8.30
2011,05,04,08,23,8.40
2011,05,04,08,24,8.40
2011,05,04,08,25,8.40
2011,05,04,08,26,8.40
2011,05,04,08,27,8.30
2011,05,04,08,28,8.30
2011,05,04,08,29,8.40
2011,05,04,08,30,8.40
2011,05,04,08,31,8.50
2011,05,04,08,32,8.50
2011,05,04,08,33,8.50
2011,05,04,08,34,8.60
2011,05,04,08,35,8.60
2011,05,04,08,36,8.70
2011,05,04,08,37,8.70
2011,05,04,08,38,8.70
2011,05,04,08,39,8.70
2011,05,04,08,40,8.70
2011,05,04,08,41,8.70
2011,05,04,08,42,8.80
2011,05,04,08,43,8.90
2011,05,04,08,44,8.90
2011,05,04,08,45,8.90
2011,05,04,08,46,8.90
2011,05,04,08,47,8.90
2011,05,04,08,48,8.90
2011,05,04,08,49,8.90
2011,05,04,08,50,9.00
2011,05,04,08,51,9.10
2011,05,04,08,52,9.20
2011,05,04,08,53,9.20
2011,05,04,08,54,9.20
2011,05,04,08,55,9.20
2011,05,04,08,56,9.30
2011,05,04,08,57,9.30
2011,05,04,08,58,9.40
2011,05,04,08,59,9.40
2011,05,04,09,00,9.50
2011,05,04,09,01,9.50
2011,05,04,09,02,9.50
2011,05,04,09,03,9.50
2011,05,04,09,04,9.60
2011,05,04,09,05,9.60
2011,05,04,09,06,9.70
2011,05,04,09,07,9.70
2011,05,04,09,08,9.70
2011,05,04,09,09,9.70
2011,05,04,09,10,9.70
2011,05,04,09,11,9.70
2011,05,04,09,12,9.70
2011,05,04,09,13,9.70
2011,05,04,09,14,9.80
2011,05,04,09,15,9.90
2011,05,04,09,16,9.90
2011,05,04,09,17,10.10
2011,05,04,09,18,10.10
2011,05,04,09,19,10.10
2011,05,04,09,20,10.10
2011,05,04,09,21,9.90
2011,05,04,09,22,9.80
2011,05,04,09,23,9.70
2011,05,04,09,24,9.70
2011,05,04,09,25,9.60
2011,05,04,09,26,9.50
2011,05,04,09,27,9.50
2011,05,04,09,28,9.50
2011,05,04,09,29,9.40
2011,05,04,09,30,9.40
2011,05,04,09,31,9.40
2011,05,04,09,32,9.40
2011,05,04,09,33,9.40
2011,05,04,09,34,9.40
2011,05,04,09,35,9.40
2011,05,04,09,36,9.40
2011,05,04,09,37,9.40
2011,05,04,09,38,9.30
2011,05,04,09,39,9.20
2011,05,04,09,40,9.20
2011,05,04,09,41,9.20
2011,05,04,09,42,9.20
2011,05,04,09,43,9.30
2011,05,04,09,44,9.40
2011,05,04,09,45,9.60
2011,05,04,09,46,9.70
2011,05,04,09,47,9.70
2011,05,04,09,48,9.80
2011,05,04,09,49,9.90
2011,05,04,09,50,9.90
2011,05,04,09,51,10.10
2011,05,04,09,52,10.10
2011,05,04,09,53,10.00
2011,05,04,09,54,9.90
2011,05,04,09,55,9.90
2011,05,04,09,56,9.90
2011,05,04,09,57,9.90
2011,05,04,09,58,9.90
2011,05,04,09,59,9.90
2011,05,04,10,00,10.00
2011,05,04,10,01,10.10
2011,05,04,10,02,10.00
2011,05,04,10,03,9.90
2011,05,04,10,04,9.90
2011,05,04,10,05,9.80
2011,05,04,10,06,9.80
2011,05,04,10,07,9.90
2011,05,04,10,08,9.90
2011,05,04,10,09,9.90
2011,05,04,10,10,9.90
2011,05,04,10,11,9.90
2011,05,04,10,12,9.90
2011,05,04,10,13,9.90
2011,05,04,10,14,9.90
2011,05,04,10,15,9.80
2011,05,04,10,16,9.80
2011,05,04,10,17,9.90
2011,05,04,10,18,9.90
2011,05,04,10,19,9.90
2011,05,04,10,20,9.80
2011,05,04,10,21,9.70
2011,05,04,10,22,9.70
2011,05,04,10,23,9.60
2011,05,04,10,24,9.50
2011,05,04,10,25,9.30
2011,05,04,10,26,9.20
2011,05,04,10,27,9.20
2011,05,04,10,28,9.20
2011,05,04,10,29,9.30
2011,05,04,10,30,9.30
2011,05,04,10,31,9.40
2011,05,04,10,32,9.50
2011,05,04,10,33,9.60
2011,05,04,10,34,9.60
2011,05,04,10,35,9.70
2011,05,04,10,36,9.70
2011,05,04,10,37,9.70
2011,05,04,10,38,9.70
2011,05,04,10,39,9.60
2011,05,04,10,40,9.60
2011,05,04,10,41,9.50
2011,05,04,10,42,9.50
2011,05,04,10,43,9.60
2011,05,04,10,44,9.60
2011,05,04,10,45,9.70
2011,05,04,10,46,9.90
2011,05,04,10,47,10.10
2011,05,04,10,48,10.20
2011,05,04,10,49,10.30
2011,05,04,10,50,10.30
2011,05,04,10,51,10.30
2011,05,04,10,52,10.40
2011,05,04,10,53,10.40
2011,05,04,10,54,10.40
2011,05,04,10,55,10.30
2011,05,04,10,56,10.20
2011,05,04,10,57,10.10
2011,05,04,10,58,10.10
2011,05,04,10,59,10.00
2011,05,04,11,00,9.90
2011,05,04,11,01,9.80
2011,05,04,11,02,9.80
2011,05,04,11,03,9.70
2011,05,04,11,04,9.70
2011,05,04,11,05,9.60
2011,05,04,11,06,9.60
2011,05,04,11,07,9.50
2011,05,04,11,08,9.50
2011,05,04,11,09,9.50
2011,05,04,11,10,9.40
2011,05,04,11,11,9.40
2011,05,04,11,12,9.40
2011,05,04,11,13,9.40
2011,05,04,11,14,9.40
2011,05,04,11,15,9.50
2011,05,04,11,16,9.60
2011,05,04,11,17,9.80
2011,05,04,11,18,9.90
2011,05,04,11,19,10.00
2011,05,04,11,20,10.00
2011,05,04,11,21,9.90
2011,05,04,11,22,9.90
2011,05,04,11,23,9.90
2011,05,04,11,24,9.90
2011,05,04,11,25,9.80
2011,05,04,11,26,9.80
2011,05,04,11,27,9.70
2011,05,04,11,28,9.70
2011,05,04,11,29,9.80
2011,05,04,11,30,9.80
2011,05,04,11,31,9.80
2011,05,04,11,32,9.80
2011,05,04,11,33,9.90
2011,05,04,11,34,9.90
2011,05,04,11,35,10.10
2011,05,04,11,36,10.20
2011,05,04,11,37,10.30
2011,05,04,11,38,10.30
2011,05,04,11,39,10.30
2011,05,04,11,40,10.20
2011,05,04,11,41,10.30
2011,05,04,11,42,10.30
2011,05,04,11,43,10.30
2011,05,04,11,44,10.30
2011,05,04,11,45,10.30
2011,05,04,11,46,10.30
2011,05,04,11,47,10.30
2011,05,04,11,48,10.30
2011,05,04,11,49,10.30
2011,05,04,11,50,10.30
2011,05,04,11,51,10.40
2011,05,04,11,52,10.50
2011,05,04,11,53,10.70
2011,05,04,11,54,10.80
2011,05,04,11,55,10.90
2011,05,04,11,56,10.90
2011,05,04,11,57,11.00
2011,05,04,11,58,11.10
2011,05,04,11,59,11.10
2011,05,04,12,00,11.00
2011,05,04,12,01,10.90
2011,05,04,12,02,10.90
2011,05,04,12,03,10.90
2011,05,04,12,04,10.90
2011,05,04,12,05,10.70
2011,05,04,12,06,10.60
2011,05,04,12,07,10.50
2011,05,04,12,08,10.40
2011,05,04,12,09,10.30
2011,05,04,12,10,10.30
2011,05,04,12,11,10.40
2011,05,04,12,12,10.40
2011,05,04,12,13,10.40
2011,05,04,12,14,10.30
2011,05,04,12,15,10.20
2011,05,04,12,16,10.20
2011,05,04,12,17,10.20
2011,05,04,12,18,10.20
2011,05,04,12,19,10.10
2011,05,04,12,20,10.00
2011,05,04,12,21,9.90
2011,05,04,12,22,9.90
2011,05,04,12,23,9.90
2011,05,04,12,24,9.90
2011,05,04,12,25,9.80
2011,05,04,12,26,9.90
2011,05,04,12,27,10.10
2011,05,04,12,28,10.20
2011,05,04,12,29,10.30
2011,05,04,12,30,10.40
2011,05,04,12,31,10.50
2011,05,04,12,32,10.60
2011,05,04,12,33,10.60
2011,05,04,12,34,10.50
2011,05,04,12,35,10.40
2011,05,04,12,36,10.50
2011,05,04,12,37,10.60
2011,05,04,12,38,10.70
2011,05,04,12,39,10.60
2011,05,04,12,40,10.60
2011,05,04,12,41,10.70
2011,05,04,12,42,10.70
2011,05,04,12,43,10.80
2011,05,04,12,44,10.90
2011,05,04,12,45,11.00
2011,05,04,12,46,11.10
2011,05,04,12,47,11.20
2011,05,04,12,48,11.20
2011,05,04,12,49,11.20
2011,05,04,12,50,11.10
2011,05,04,12,51,11.10
2011,05,04,12,52,10.90
2011,05,04,12,53,10.90
2011,05,04,12,54,10.80
2011,05,04,12,55,10.70
2011,05,04,12,56,10.70
2011,05,04,12,57,10.80
2011,05,04,12,58,11.00
2011,05,04,12,59,11.10
2011,05,04,13,00,11.10
2011,05,04,13,01,11.10
2011,05,04,13,02,11.20
2011,05,04,13,03,11.20
2011,05,04,13,04,11.40
2011,05,04,13,05,11.40
2011,05,04,13,06,11.40
2011,05,04,13,07,11.30
2011,05,04,13,08,11.30
2011,05,04,13,09,11.30
2011,05,04,13,10,11.10
2011,05,04,13,11,11.00
2011,05,04,13,12,11.10
2011,05,04,13,13,11.10
2011,05,04,13,14,11.10
2011,05,04,13,15,10.90
2011,05,04,13,16,10.90
2011,05,04,13,17,10.90
2011,05,04,13,18,10.90
2011,05,04,13,19,10.90
2011,05,04,13,20,11.10
2011,05,04,13,21,11.10
2011,05,04,13,22,11.10
2011,05,04,13,23,11.10
2011,05,04,13,24,11.20
2011,05,04,13,25,11.40
2011,05,04,13,26,11.60
2011,05,04,13,27,11.70
2011,05,04,13,28,11.90
2011,05,04,13,29,12.10
2011,05,04,13,30,12.00
2011,05,04,13,31,12.00
2011,05,04,13,32,11.80
2011,05,04,13,33,11.70
2011,05,04,13,34,11.60
2011,05,04,13,35,11.60
2011,05,04,13,36,11.70
2011,05,04,13,37,11.70
2011,05,04,13,38,11.70
2011,05,04,13,39,11.80
2011,05,04,13,40,11.80
2011,05,04,13,41,11.90
2011,05,04,13,42,12.00
2011,05,04,13,43,12.10
2011,05,04,13,44,12.00
2011,05,04,13,45,12.00
2011,05,04,13,46,12.00
2011,05,04,13,47,12.00
2011,05,04,13,48,12.10
2011,05,04,13,49,12.00
2011,05,04,13,50,12.00
2011,05,04,13,51,11.90
2011,05,04,13,52,11.80
2011,05,04,13,53,11.70
2011,05,04,13,54,11.80
2011,05,04,13,55,11.80
2011,05,04,13,56,11.90
2011,05,04,13,57,12.00
2011,05,04,13,58,12.00
2011,05,04,13,59,12.00
2011,05,04,14,00,12.10
2011,05,04,14,01,12.10
2011,05,04,14,02,12.20
2011,05,04,14,03,12.30
2011,05,04,14,04,12.30
2011,05,04,14,05,12.30
2011,05,04,14,06,12.30
2011,05,04,14,07,12.40
2011,05,04,14,08,12.30
2011,05,04,14,09,12.40
2011,05,04,14,10,12.50
2011,05,04,14,11,12.60
2011,05,04,14,12,12.60
2011,05,04,14,13,12.60
2011,05,04,14,14,12.70
2011,05,04,14,15,12.60
2011,05,04,14,16,12.60
2011,05,04,14,17,12.70
2011,05,04,14,18,12.70
2011,05,04,14,19,12.60
2011,05,04,14,20,12.70
2011,05,04,14,21,12.80
2011,05,04,14,22,12.80
2011,05,04,14,23,12.90
2011,05,04,14,24,13.00
2011,05,04,14,25,13.00
2011,05,04,14,26,13.00
2011,05,04,14,27,13.10
2011,05,04,14,28,13.10
2011,05,04,14,29,13.10
2011,05,04,14,30,13.10
2011,05,04,14,31,13.00
2011,05,04,14,32,13.00
2011,05,04,14,33,13.00
2011,05,04,14,34,13.00
2011,05,04,14,35,13.00
2011,05,04,14,36,13.10
2011,05,04,14,37,13.10
2011,05,04,14,38,13.20
2011,05,04,14,39,13.20
2011,05,04,14,40,13.30
2011,05,04,14,41,13.30
2011,05,04,14,42,13.30
2011,05,04,14,43,13.40
2011,05,04,14,44,13.40
2011,05,04,14,45,13.50
2011,05,04,14,46,13.40
2011,05,04,14,47,13.50
2011,05,04,14,48,13.50
2011,05,04,14,49,13.50
2011,05,04,14,50,13.60
2011,05,04,14,51,13.70
2011,05,04,14,52,13.80
2011,05,04,14,53,13.90
2011,05,04,14,54,13.90
2011,05,04,14,55,13.90
2011,05,04,14,56,13.90
2011,05,04,14,57,13.90
2011,05,04,14,58,14.00
2011,05,04,14,59,13.90
2011,05,04,15,00,13.90
2011,05,04,15,01,13.80
2011,05,04,15,02,13.90
2011,05,04,15,03,13.90
2011,05,04,15,04,13.90
2011,05,04,15,05,13.90
2011,05,04,15,06,13.90
2011,05,04,15,07,13.90
2011,05,04,15,08,13.80
2011,05,04,15,09,13.80
2011,05,04,15,10,13.90
2011,05,04,15,11,13.90
2011,05,04,15,12,14.00
2011,05,04,15,13,14.00
2011,05,04,15,14,14.00
2011,05,04,15,15,14.00
2011,05,04,15,16,14.10
2011,05,04,15,17,14.00
2011,05,04,15,18,14.00
2011,05,04,15,19,14.00
2011,05,04,15,20,14.00
2011,05,04,15,21,14.00
2011,05,04,15,22,14.00
2011,05,04,15,23,13.90
2011,05,04,15,24,13.90
2011,05,04,15,25,13.90
2011,05,04,15,26,13.90
2011,05,04,15,27,13.90
2011,05,04,15,28,13.70
2011,05,04,15,29,13.60
2011,05,04,15,30,13.50
2011,05,04,15,31,13.40
2011,05,04,15,32,13.30
2011,05,04,15,33,13.30
2011,05,04,15,34,13.30
2011,05,04,15,35,13.20
2011,05,04,15,36,13.20
2011,05,04,15,37,13.30
2011,05,04,15,38,13.30
2011,05,04,15,39,13.40
2011,05,04,15,40,13.50
2011,05,04,15,41,13.60
2011,05,04,15,42,13.60
2011,05,04,15,43,13.50
2011,05,04,15,44,13.50
2011,05,04,15,45,13.60
2011,05,04,15,46,13.60
2011,05,04,15,47,13.60
2011,05,04,15,48,13.50
2011,05,04,15,49,13.50
2011,05,04,15,50,13.60
2011,05,04,15,51,13.50
2011,05,04,15,52,13.60
2011,05,04,15,53,13.60
2011,05,04,15,54,13.70
2011,05,04,15,55,13.70
2011,05,04,15,56,13.60
2011,05,04,15,57,13.60
2011,05,04,15,58,13.50
2011,05,04,15,59,13.40
2011,05,04,16,00,13.20
2011,05,04,16,01,13.10
2011,05,04,16,02,13.10
2011,05,04,16,03,13.10
2011,05,04,16,04,13.20
2011,05,04,16,05,13.30
2011,05,04,16,06,13.30
2011,05,04,16,07,13.30
2011,05,04,16,08,13.20
2011,05,04,16,09,13.10
2011,05,04,16,10,13.00
2011,05,04,16,11,13.00
2011,05,04,16,12,13.00
2011,05,04,16,13,13.10
2011,05,04,16,14,13.00
2011,05,04,16,15,13.10
2011,05,04,16,16,13.10
2011,05,04,16,17,13.10
2011,05,04,16,18,13.10
2011,05,04,16,19,13.00
2011,05,04,16,20,12.90
2011,05,04,16,21,12.80
2011,05,04,16,22,12.80
2011,05,04,16,23,12.80
2011,05,04,16,24,12.70
2011,05,04,16,25,12.70
2011,05,04,16,26,12.70
2011,05,04,16,27,12.60
2011,05,04,16,28,12.70
2011,05,04,16,29,12.70
2011,05,04,16,30,12.70
2011,05,04,16,31,12.70
2011,05,04,16,32,12.60
2011,05,04,16,33,12.60
2011,05,04,16,34,12.70
2011,05,04,16,35,12.70
2011,05,04,16,36,12.70
2011,05,04,16,37,12.70
2011,05,04,16,38,12.60
2011,05,04,16,39,12.50
2011,05,04,16,40,12.40
2011,05,04,16,41,12.50
2011,05,04,16,42,12.60
2011,05,04,16,43,12.60
2011,05,04,16,44,12.60
2011,05,04,16,45,12.70
2011,05,04,16,46,12.70
2011,05,04,16,47,12.80
2011,05,04,16,48,12.80
2011,05,04,16,49,12.80
2011,05,04,16,50,12.80
2011,05,04,16,51,12.80
2011,05,04,16,52,12.80
2011,05,04,16,53,12.80
2011,05,04,16,54,12.80
2011,05,04,16,55,12.80
2011,05,04,16,56,12.80
2011,05,04,16,57,12.80
2011,05,04,16,58,12.70
2011,05,04,16,59,12.70
2011,05,04,17,00,12.70
2011,05,04,17,01,12.70
2011,05,04,17,02,12.80
2011,05,04,17,03,12.80
2011,05,04,17,04,12.70
2011,05,04,17,05,12.70
2011,05,04,17,06,12.60
2011,05,04,17,07,12.60
2011,05,04,17,08,12.60
2011,05,04,17,09,12.50
2011,05,04,17,10,12.40
2011,05,04,17,11,12.30
2011,05,04,17,12,12.20
2011,05,04,17,13,12.20
2011,05,04,17,14,12.20
2011,05,04,17,15,12.20
2011,05,04,17,16,12.20
2011,05,04,17,17,12.30
2011,05,04,17,18,12.30
2011,05,04,17,19,12.30
2011,05,04,17,20,12.30
2011,05,04,17,21,12.30
2011,05,04,17,22,12.30
2011,05,04,17,23,12.30
2011,05,04,17,24,12.30
2011,05,04,17,25,12.30
2011,05,04,17,26,12.30
2011,05,04,17,27,12.30
2011,05,04,17,28,12.40
2011,05,04,17,29,12.30
2011,05,04,17,30,12.30
2011,05,04,17,31,12.30
2011,05,04,17,32,12.30
2011,05,04,17,33,12.30
2011,05,04,17,34,12.30
2011,05,04,17,35,12.30
2011,05,04,17,36,12.30
2011,05,04,17,37,12.30
2011,05,04,17,38,12.30
2011,05,04,17,39,12.30
2011,05,04,17,40,12.30
2011,05,04,17,41,12.30
2011,05,04,17,42,12.30
2011,05,04,17,43,12.20
2011,05,04,17,44,12.20
2011,05,04,17,45,12.10
2011,05,04,17,46,12.10
2011,05,04,17,47,12.10
2011,05,04,17,48,12.10